Regional Weather Roundup
Issued by NWS

Home | Current Version | Previous Version | Text Only | Print | Product List | Glossary Off
Versions: 1 2 3 4 5 6 7 8 9 10 11 12 13 14 15 16 17 18 19 20 21 22 23 24 25 26 27 28 29 30 31 32 33 34 35 36 37 38 39 40 41 42 43 44 45 46 47 48 49 50

000
ASUS43 KOAX 211602
RWRNE

WEATHER ROUNDUP FOR NEBRASKA
NATIONAL WEATHER SERVICE OMAHA NE
1100 AM CDT SUN SEP 21 2014

NOTES: SATELLITE DATA IS BEING USED TO AUGMENT CLOUD COVER ABOVE
       12000 FEET.
       "FAIR" INDICATES FEW OR NO CLOUDS BELOW 12,000 FEET WITH NO
       SIGNIFICANT WEATHER AND/OR OBSTRUCTIONS TO VISIBILITY.

  * THESE STATIONS DO NOT REPORT WEATHER SUCH AS RAIN...SNOW OR FOG.

NEZ001>004-019>022-054>056-211700-
NEBRASKA PANHANDLE

CITY           SKY/WX    TMP DP  RH WIND       PRES   REMARKS
SCOTTSBLUFF    CLOUDY    62  40  44 SE6       30.40R
ALLIANCE       CLOUDY    63  38  39 E5        30.39R
CHADRON        SUNNY     63  39  41 CALM      30.37S
KIMBALL        MOSUNNY   64  36  35 SE12      30.39F
SIDNEY         CLOUDY    63  39  41 E6        30.41F
$$

NEZ057>060-069>072-079>082-211700-
SOUTHWEST NEBRASKA

CITY           SKY/WX    TMP DP  RH WIND       PRES   REMARKS
NORTH PLATTE   PTSUNNY   62  46  55 SW3       30.36R
IMPERIAL       SUNNY     68  35  29 NE8       30.38R
LEXINGTON      MOSUNNY   67  41  38 N6        30.34S
MCCOOK         PTSUNNY   69  40  34 NE9       30.35R
OGALLALA       MOSUNNY   66  44  46 E3        30.38S
$$

NEZ005>010-023>029-035>040-094-211700-
NORTH CENTRAL NEBRASKA

CITY           SKY/WX    TMP DP  RH WIND       PRES   REMARKS
VALENTINE      SUNNY     67  38  34 N9        30.34S
AINSWORTH      SUNNY     64  40  40 N12       30.34R
BROKEN BOW     SUNNY     69  40  34 N10       30.33R
O`NEILL        SUNNY     64  46  53 NW10      30.31S
ORD            SUNNY     66  45  46 N10       30.30S
THEDFORD       SUNNY     66  40  38 N6        30.36R
$$

NEZ041-046>049-061>064-073>077-083>087-211700-
SOUTH CENTRAL NEBRASKA

CITY           SKY/WX    TMP DP  RH WIND       PRES   REMARKS
GRAND ISLAND   SUNNY     68  43  40 N10       30.30S
AURORA         SUNNY     67  42  39 N10       30.28F
HASTINGS       SUNNY     67  41  38 N12       30.30R
HEBRON         SUNNY     70  41  34 N10       30.27S
HOLDREGE       SUNNY     65  41  40 N10       30.32S
KEARNEY *      SUNNY     66  43  42 NW9       30.32S
YORK           SUNNY     64  46  52 N14       30.28S
$$

NEZ011>018-030>034-042>045-211700-
NORTHEAST NEBRASKA

CITY           SKY/WX    TMP DP  RH WIND       PRES   REMARKS
NORFOLK        SUNNY     66  47  50 NW12      30.27R
ALBION         SUNNY     65  43  44 NW9       30.29S
BLAIR          SUNNY     65  48  53 N13       30.23R
COLUMBUS *     SUNNY     66  46  48 NW10G16   30.28S
FREMONT        SUNNY     66  48  51 NW13      30.25S
TEKAMAH        SUNNY     68  48  48 N16G22    30.23R
WAYNE          SUNNY     65  48  54 N13       30.26S
$$

NEZ050>053-065>068-078-088>093-211700-
SOUTHEAST NEBRASKA

CITY           SKY/WX    TMP DP  RH WIND       PRES   REMARKS
LINCOLN        SUNNY     69  47  45 NW13      30.25S
OMAHA EPPLEY   SUNNY     66  49  54 N16       30.22S
BEATRICE       SUNNY     70  45  40 N10G22    30.24S
FALLS CITY     SUNNY     71  50  47 NW13G18   30.20R
NEBRASKA CITY    N/A     67  39  35 N15       30.22R
PLATTSMOUTH    SUNNY     66  46  48 NW12      30.22S
$$

NEZ044-045-051>053-067-211700-
OMAHA AREA

CITY           SKY/WX    TMP DP  RH WIND       PRES   REMARKS
OMAHA EPPLEY   SUNNY     66  49  54 N16       30.22S
BLAIR          SUNNY     65  48  53 N13       30.23R
FREMONT        SUNNY     66  48  51 NW13      30.25S
MILLARD        SUNNY     65  48  54 NW7       30.22F
OFFUTT AFB     SUNNY     66  50  55 NW14      30.22R
PLATTSMOUTH    SUNNY     66  46  48 NW12      30.22S
WAHOO          FAIR      66  45  46 N8        30.24S
$$



USA.gov is the U.S. government's official web portal to all federal, state and local government web resources and services.